Preview of NWS' New Version of Forecast
This preview is not operational and should not be used for support decisions.

Regional Weather Roundup (RWR)

Issued by National Weather Service (NWS)

                            
000
ASUS43 KBIS 192010
RWRND 

NORTH DAKOTA REGIONAL WEATHER ROUNDUP
NATIONAL WEATHER SERVICE BISMARCK ND
300 PM CDT WED JUN 19 2019

NOTE: "FAIR" INDICATES FEW OR NO CLOUDS BELOW 12,000 FEET WITH NO
SIGNIFICANT WEATHER AND/OR OBSTRUCTIONS TO VISIBILITY.


NDZ001>003-009>011-017-192100-
NORTHWEST NORTH DAKOTA
  
CITY           SKY/WX    TMP DP  RH WIND       PRES   REMARKS
WILLISTON      CLOUDY    75  49  39 SE17G36   29.73F                  
MINOT          MOSUNNY   76  44  32 SE20G28   29.77F                  
MINOT AFB      MOSUNNY   74  46  37 SE14G24   29.76F                  
$$
 
NDZ018>021-031>035-040>046-192100-
SOUTHWEST NORTH DAKOTA
  
CITY           SKY/WX    TMP DP  RH WIND       PRES   REMARKS
BISMARCK       CLOUDY    59  53  80 SE12      29.80S                  
DICKINSON      CLOUDY    59  55  87 E17       29.75F                  
GARRISON         N/A     64  55  72 SE13      29.78F                  
HETTINGER ARPT CLOUDY    61  56  83 E10       29.75F                  
$$
 
NDZ004>008-012>016-024-026-027-054-192100-
NORTHEAST NORTH DAKOTA
  
CITY           SKY/WX    TMP DP  RH WIND       PRES   REMARKS
GRAND FORKS    CLOUDY    75  46  35 E7        29.79F                  
GRND FRKS AFB  CLOUDY    74  48  39 SE8       29.81F                  
DEVILS LAKE    CLOUDY    70  48  45 SE15G22   29.83F                  
$$
 
NDZ022-023-025-028>030-036>039-047>053-192100-
SOUTHEAST NORTH DAKOTA
  
CITY           SKY/WX    TMP DP  RH WIND       PRES   REMARKS
FARGO          CLOUDY    74  49  41 E7        29.79F                  
JAMESTOWN      LGT RAIN  59  53  80 S10       29.82F                  
$$